Sat, 17 Apr 2021 10:51:59 UTC

Information for RPM xxhash-libs-0.7.3-1.fc32.s390x.rpm

ID20813777
Namexxhash-libs
Version0.7.3
Release1.fc32
Epoch
Archs390x
SummaryExtremely fast hash algorithm - library
DescriptionxxHash is an Extremely fast Hash algorithm, running at RAM speed limits. It successfully completes the SMHasher test suite which evaluates collision, dispersion and randomness qualities of hash functions. Code is highly portable, and hashes are identical on all platforms (little / big endian).
Build Time2020-03-06 16:26:05 GMT
Size32,910
67b2c8f5390eaf2324c34d41d90f8b98
LicenseBSD
Buildrootf32-build-19712400-1401659
Provides
libxxhash.so.0()(64bit)
xxhash-libs = 0.7.3-1.fc32
xxhash-libs(s390-64) = 0.7.3-1.fc32
Obsoletes No Obsoletes
Conflicts No Conflicts
Requires
libc.so.6()(64bit)
libc.so.6(GLIBC_2.2)(64bit)
libc.so.6(GLIBC_2.3.4)(64bit)
libc.so.6(GLIBC_2.4)(64bit)
rpmlib(CompressedFileNames) <= 3.0.4-1
rpmlib(FileDigests) <= 4.6.0-1
rpmlib(PayloadFilesHavePrefix) <= 4.0-1
rpmlib(PayloadIsZstd) <= 5.4.18-1
rtld(GNU_HASH)
Recommends No Recommends
Suggests No Suggests
Supplements No Supplements
Enhances No Enhances
Files
1 through 9 of 9
Name ascending sort Size
/usr/lib/.build-id0
/usr/lib/.build-id/a60
/usr/lib/.build-id/a6/6a4eded4b544cabfab5d0acdb6bac5fb77e60e40
/usr/lib64/libxxhash.so.018
/usr/lib64/libxxhash.so.0.7.344,528
/usr/share/doc/xxhash-libs0
/usr/share/doc/xxhash-libs/README.md9,819
/usr/share/licenses/xxhash-libs0
/usr/share/licenses/xxhash-libs/LICENSE2,236
Component of
Page:
1 through 50 of 14786 >>>
Buildroot descending sort Created State
f32-build-21385845-1680084 2020-07-05 19:17:39 expired
f32-build-21385841-1680084 2020-07-05 19:16:31 expired
f32-build-21385800-1680084 2020-07-05 19:11:48 expired
f32-build-21385775-1680084 2020-07-05 19:10:12 expired
f32-build-21385725-1680084 2020-07-05 19:06:49 expired
f32-build-21385550-1680084 2020-07-05 18:56:08 expired
f32-build-21385544-1680084 2020-07-05 18:55:02 expired
f32-build-21385324-1680084 2020-07-05 18:31:45 expired
f32-build-21385276-1680084 2020-07-05 18:27:00 expired
f32-build-21385275-1680084 2020-07-05 18:26:47 expired
f32-build-21385274-1680084 2020-07-05 18:26:47 expired
f32-build-21385194-1680084 2020-07-05 18:21:08 expired
f32-build-21384945-1680084 2020-07-05 17:55:48 expired
f32-build-21384938-1680084 2020-07-05 17:55:05 expired
f32-build-21384846-1680084 2020-07-05 17:48:06 expired
f32-build-21384821-1680084 2020-07-05 17:47:15 expired
f32-build-21384733-1680084 2020-07-05 17:39:34 expired
f32-build-21384677-1680084 2020-07-05 17:33:27 expired
f32-build-21384675-1680084 2020-07-05 17:32:43 expired
f32-build-21384674-1680084 2020-07-05 17:32:42 expired
f32-build-21384644-1680084 2020-07-05 17:31:20 expired
f32-build-21384640-1680084 2020-07-05 17:31:13 expired
f32-build-21384625-1680084 2020-07-05 17:30:48 expired
f32-build-21384572-1680084 2020-07-05 17:26:20 expired
f32-build-21384566-1680084 2020-07-05 17:26:13 expired
f32-build-21384477-1680084 2020-07-05 17:19:22 expired
f32-build-21384472-1680084 2020-07-05 17:19:06 expired
f32-build-21384467-1680084 2020-07-05 17:18:44 expired
f32-build-21384462-1680084 2020-07-05 17:18:23 expired
f32-build-21384459-1680084 2020-07-05 17:18:20 expired
f32-build-21384458-1680084 2020-07-05 17:18:20 expired
f32-build-21384457-1680084 2020-07-05 17:18:18 expired
f32-build-21384175-1680084 2020-07-05 16:34:31 expired
f32-build-21384153-1680084 2020-07-05 16:33:48 expired
f32-build-21384152-1680084 2020-07-05 16:33:47 expired
f32-build-21383927-1680084 2020-07-05 16:23:42 expired
f32-build-21383897-1680084 2020-07-05 16:22:46 expired
f32-build-21383839-1680084 2020-07-05 16:20:26 expired
f32-build-21383835-1680084 2020-07-05 16:19:26 expired
f32-build-21383828-1680084 2020-07-05 16:17:18 expired
f32-build-21383827-1680084 2020-07-05 16:16:15 expired
f32-build-21383819-1680084 2020-07-05 16:13:00 expired
f32-build-21383803-1680084 2020-07-05 16:11:53 expired
f32-build-21383799-1680084 2020-07-05 16:11:41 expired
f32-build-21383774-1680084 2020-07-05 16:10:48 expired
f32-build-21383623-1680084 2020-07-05 16:05:03 expired
f32-build-21383621-1680084 2020-07-05 16:04:57 expired
f32-build-21383537-1680084 2020-07-05 16:00:34 expired
f32-build-21383475-1680084 2020-07-05 15:57:32 expired
f32-build-21383463-1680084 2020-07-05 15:57:08 expired